Regional Weather Roundup
Issued by NWS

Home | Current Version | Previous Version | Graphics & Text | Print | Product List | Glossary On
Versions: 1 2 3 4 5 6 7 8 9 10 11 12 13 14 15 16 17 18 19 20 21 22 23 24 25 26 27 28 29 30 31 32 33 34 35 36 37 38 39 40 41 42 43 44 45 46 47 48 49 50
000
ASUS43 KBIS 291402
RWRND

NORTH DAKOTA REGIONAL WEATHER ROUNDUP
NATIONAL WEATHER SERVICE BISMARCK ND
900 AM CDT SAT APR 29 2017

NOTE: "FAIR" INDICATES FEW OR NO CLOUDS BELOW 12,000 FEET WITH NO
SIGNIFICANT WEATHER AND/OR OBSTRUCTIONS TO VISIBILITY.


NDZ001>003-009>011-017-291500-
NORTHWEST NORTH DAKOTA

CITY           SKY/WX    TMP DP  RH WIND       PRES   REMARKS
WILLISTON      FAIR      40  28  62 CALM      30.25R
MINOT          FAIR      52  25  35 SW10      30.22S
MINOT AFB      SUNNY     52  26  36 SW9       30.21S
$$

NDZ018>021-031>035-040>046-291500-
SOUTHWEST NORTH DAKOTA

CITY           SKY/WX    TMP DP  RH WIND       PRES   REMARKS
BISMARCK       FAIR      37  26  64 CALM      30.30R
DICKINSON      FAIR      46  25  43 S7        30.24R
GARRISON         N/A     42  27  55 CALM      30.24S
HETTINGER ARPT SUNNY     40  26  57 CALM      30.29R
$$

NDZ004>008-012>016-024-026-027-054-291500-
NORTHEAST NORTH DAKOTA

CITY           SKY/WX    TMP DP  RH WIND       PRES   REMARKS
GRAND FORKS    MOSUNNY   42  32  67 CALM      30.31R
GRND FRKS AFB  SUNNY     42  23  48 CALM      30.32R
DEVILS LAKE    FAIR      44  20  38 S8        30.30R
$$

NDZ022-023-025-028>030-036>039-047>053-291500-
SOUTHEAST NORTH DAKOTA

CITY           SKY/WX    TMP DP  RH WIND       PRES   REMARKS
FARGO          SUNNY     44  28  53 S5        30.33R
JAMESTOWN      FAIR      44  25  47 SW5       30.31R
$$





USA.gov is the U.S. government's official web portal to all federal, state and local government web resources and services.